Time,TemperatureF,DewpointF,PressureIn,WindDirection,WindDirectionDegrees,WindSpeedMPH,WindSpeedGustMPH,Humidity,HourlyPrecipIn,Conditions,Clouds,dailyrainin,SoftwareType,DateUTC
2013-01-03 00:10:00,19.8,14.6,30.09,South,180,2.7,-999.0,80,-99.99,,,0.00,Acu-Link.com,2013-01-03 05:10:00,
2013-01-03 00:26:00,19.6,14.5,30.09,SSW,202,5.8,-999.0,80,-99.99,,,0.00,Acu-Link.com,2013-01-03 05:26:00,
2013-01-03 00:41:00,19.4,14.3,30.08,NNW,337,0.0,-999.0,80,-99.99,,,0.00,Acu-Link.com,2013-01-03 05:41:00,
2013-01-03 00:57:00,19.0,14.1,30.08,SW,225,2.2,-999.0,81,-99.99,,,0.00,Acu-Link.com,2013-01-03 05:57:00,
2013-01-03 01:12:00,19.0,14.1,30.08,South,180,3.2,-999.0,81,-99.99,,,0.00,Acu-Link.com,2013-01-03 06:12:00,
2013-01-03 01:27:00,18.0,13.5,30.09,West,270,1.7,-999.0,82,-99.99,,,0.00,Acu-Link.com,2013-01-03 06:27:00,
2013-01-03 01:43:00,16.7,12.7,30.10,SSW,202,4.2,-999.0,84,-99.99,,,0.00,Acu-Link.com,2013-01-03 06:43:00,
2013-01-03 01:58:00,16.0,12.6,30.10,South,180,2.2,-999.0,86,-99.99,,,0.00,Acu-Link.com,2013-01-03 06:58:00,
2013-01-03 02:13:00,15.4,12.5,30.10,South,180,2.7,-999.0,88,-99.99,,,0.00,Acu-Link.com,2013-01-03 07:13:00,
2013-01-03 02:29:00,15.1,12.5,30.11,WSW,247,4.7,-999.0,89,-99.99,,,0.00,Acu-Link.com,2013-01-03 07:29:00,
2013-01-03 02:44:00,15.6,12.9,30.11,South,180,5.8,-999.0,89,-99.99,,,0.00,Acu-Link.com,2013-01-03 07:44:00,
2013-01-03 02:59:00,16.0,13.3,30.10,SW,225,3.2,-999.0,89,-99.99,,,0.00,Acu-Link.com,2013-01-03 07:59:00,
2013-01-03 03:15:00,16.0,13.3,30.09,SSW,202,2.2,-999.0,89,-99.99,,,0.00,Acu-Link.com,2013-01-03 08:15:00,
2013-01-03 03:30:00,15.4,12.7,30.09,South,180,0.0,-999.0,89,-99.99,,,0.00,Acu-Link.com,2013-01-03 08:30:00,
2013-01-03 03:45:00,15.6,12.9,30.09,South,180,2.7,-999.0,89,-99.99,,,0.00,Acu-Link.com,2013-01-03 08:45:00,
2013-01-03 04:01:00,16.0,13.3,30.08,South,180,0.0,-999.0,89,-99.99,,,0.00,Acu-Link.com,2013-01-03 09:01:00,
2013-01-03 04:16:00,16.0,13.3,30.08,South,180,1.1,-999.0,89,-99.99,,,0.00,Acu-Link.com,2013-01-03 09:16:00,
2013-01-03 04:31:00,16.2,13.8,30.07,SW,225,2.2,-999.0,90,-99.99,,,0.00,Acu-Link.com,2013-01-03 09:31:00,
2013-01-03 04:47:00,16.5,14.1,30.07,East,90,1.7,-999.0,90,-99.99,,,0.00,Acu-Link.com,2013-01-03 09:47:00,
2013-01-03 05:02:00,16.9,14.5,30.07,SSW,202,3.2,-999.0,90,-99.99,,,0.00,Acu-Link.com,2013-01-03 10:02:00,
2013-01-03 05:17:00,17.2,14.8,30.06,SW,225,1.7,-999.0,90,-99.99,,,0.00,Acu-Link.com,2013-01-03 10:17:00,
2013-01-03 05:33:00,17.4,15.0,30.06,SW,225,4.2,-999.0,90,-99.99,,,0.00,Acu-Link.com,2013-01-03 10:33:00,
2013-01-03 05:48:00,17.6,14.9,30.07,WSW,247,4.2,-999.0,89,-99.99,,,0.00,Acu-Link.com,2013-01-03 10:48:00,
2013-01-03 06:03:00,17.6,14.7,30.07,WSW,247,2.7,-999.0,88,-99.99,,,0.00,Acu-Link.com,2013-01-03 11:03:00,
2013-01-03 10:27:00,21.7,14.4,30.04,South,180,6.8,-999.0,73,-99.99,,,0.00,Acu-Link.com,2013-01-03 15:27:00,
2013-01-03 10:42:00,21.9,14.0,30.04,SSW,202,6.3,-999.0,71,-99.99,,,0.00,Acu-Link.com,2013-01-03 15:42:00,
2013-01-03 10:58:00,23.2,14.2,30.03,SSW,202,8.3,-999.0,68,-99.99,,,0.00,Acu-Link.com,2013-01-03 15:58:00,
2013-01-03 11:13:00,23.9,14.9,30.02,SW,225,4.7,-999.0,68,-99.99,,,0.00,Acu-Link.com,2013-01-03 16:13:00,
2013-01-03 11:28:00,23.7,14.7,30.01,SW,225,2.7,-999.0,68,-99.99,,,0.00,Acu-Link.com,2013-01-03 16:28:00,
2013-01-03 11:43:00,24.1,15.4,30.01,WSW,247,7.3,-999.0,69,-99.99,,,0.00,Acu-Link.com,2013-01-03 16:43:00,
2013-01-03 11:59:00,24.3,15.9,30.00,SW,225,3.2,-999.0,70,-99.99,,,0.00,Acu-Link.com,2013-01-03 16:59:00,
2013-01-03 12:14:00,24.1,15.8,30.00,SW,225,8.9,-999.0,70,-99.99,,,0.00,Acu-Link.com,2013-01-03 17:14:00,
2013-01-03 12:29:00,23.7,16.3,29.99,SSW,202,5.3,-999.0,73,-99.99,,,0.00,Acu-Link.com,2013-01-03 17:29:00,
2013-01-03 12:44:00,24.4,17.0,29.99,SW,225,3.2,-999.0,73,-99.99,,,0.00,Acu-Link.com,2013-01-03 17:44:00,
2013-01-03 13:00:00,24.6,18.7,29.97,SSW,202,9.9,-999.0,78,-99.99,,,0.00,Acu-Link.com,2013-01-03 18:00:00,
2013-01-03 13:15:00,25.7,18.9,29.97,West,270,5.8,-999.0,75,-99.99,,,0.00,Acu-Link.com,2013-01-03 18:15:00,
2013-01-03 13:30:00,26.8,20.3,29.97,SW,225,5.3,-999.0,76,-99.99,,,0.00,Acu-Link.com,2013-01-03 18:30:00,
2013-01-03 13:45:00,27.1,20.6,29.96,SW,225,9.4,-999.0,76,-99.99,,,0.00,Acu-Link.com,2013-01-03 18:45:00,
2013-01-03 14:01:00,28.2,21.3,29.96,SSE,157,8.9,-999.0,75,-99.99,,,0.00,Acu-Link.com,2013-01-03 19:01:00,
2013-01-03 14:16:00,27.9,21.3,29.96,SW,225,3.7,-999.0,76,-99.99,,,0.00,Acu-Link.com,2013-01-03 19:16:00,
2013-01-03 15:02:00,27.7,22.4,29.96,West,270,6.8,-999.0,80,-99.99,,,0.00,Acu-Link.com,2013-01-03 20:02:00,
2013-01-03 15:17:00,27.9,22.8,29.96,WSW,247,3.7,-999.0,81,-99.99,,,0.00,Acu-Link.com,2013-01-03 20:17:00,
2013-01-03 15:32:00,27.9,23.1,29.97,West,270,4.7,-999.0,82,-99.99,,,0.00,Acu-Link.com,2013-01-03 20:32:00,
2013-01-03 15:48:00,27.9,23.1,29.97,West,270,2.7,-999.0,82,-99.99,,,0.00,Acu-Link.com,2013-01-03 20:48:00,
2013-01-03 16:03:00,27.9,23.1,29.97,WSW,247,0.0,-999.0,82,-99.99,,,0.00,Acu-Link.com,2013-01-03 21:03:00,
2013-01-03 16:18:00,27.9,23.4,29.97,WSW,247,2.2,-999.0,83,-99.99,,,0.00,Acu-Link.com,2013-01-03 21:18:00,
2013-01-03 16:34:00,27.9,23.4,29.98,WSW,247,2.7,-999.0,83,-99.99,,,0.00,Acu-Link.com,2013-01-03 21:34:00,
2013-01-03 16:49:00,27.9,23.7,29.98,WSW,247,2.2,-999.0,84,-99.99,,,0.00,Acu-Link.com,2013-01-03 21:49:00,
2013-01-03 17:04:00,27.9,24.0,29.99,West,270,4.2,-999.0,85,-99.99,,,0.00,Acu-Link.com,2013-01-03 22:04:00,
2013-01-03 17:20:00,27.7,24.6,29.99,WSW,247,1.7,-999.0,88,-99.99,,,0.00,Acu-Link.com,2013-01-03 22:20:00,
2013-01-03 17:35:00,27.5,24.7,29.99,NNW,337,2.7,-999.0,89,-99.99,,,0.00,Acu-Link.com,2013-01-03 22:35:00,
2013-01-03 17:50:00,27.3,24.8,30.00,SSE,157,3.2,-999.0,90,-99.99,,,0.00,Acu-Link.com,2013-01-03 22:50:00,
2013-01-03 18:05:00,27.3,25.0,30.01,West,270,3.2,-999.0,91,-99.99,,,0.00,Acu-Link.com,2013-01-03 23:05:00,
2013-01-03 18:21:00,27.3,25.0,30.01,SSE,157,3.7,-999.0,91,-99.99,,,0.00,Acu-Link.com,2013-01-03 23:21:00,
2013-01-03 18:36:00,27.3,25.3,30.00,West,270,3.7,-999.0,92,-99.99,,,0.00,Acu-Link.com,2013-01-03 23:36:00,
2013-01-03 18:51:00,27.3,25.3,30.02,West,270,2.7,-999.0,92,-99.99,,,0.00,Acu-Link.com,2013-01-03 23:51:00,
2013-01-03 19:06:00,27.3,25.5,30.02,South,180,1.1,-999.0,93,-99.99,,,0.00,Acu-Link.com,2013-01-04 00:06:00,
2013-01-03 19:22:00,27.1,25.4,30.02,NNW,337,1.7,-999.0,93,-99.99,,,0.00,Acu-Link.com,2013-01-04 00:22:00,
2013-01-03 19:37:00,27.1,25.6,30.03,SSW,202,1.1,-999.0,94,-99.99,,,0.00,Acu-Link.com,2013-01-04 00:37:00,
2013-01-03 19:52:00,27.0,25.5,30.03,West,270,3.2,-999.0,94,-99.99,,,0.00,Acu-Link.com,2013-01-04 00:52:00,
2013-01-03 20:08:00,27.0,25.8,30.03,SSW,202,2.2,-999.0,95,-99.99,,,0.00,Acu-Link.com,2013-01-04 01:08:00,
2013-01-03 20:23:00,27.1,25.9,30.02,SSE,157,3.7,-999.0,95,-99.99,,,0.00,Acu-Link.com,2013-01-04 01:23:00,
2013-01-03 20:38:00,27.1,25.6,30.03,SW,225,6.3,-999.0,94,-99.99,,,0.00,Acu-Link.com,2013-01-04 01:38:00,
2013-01-03 20:54:00,27.1,25.6,30.03,South,180,2.7,-999.0,94,-99.99,,,0.00,Acu-Link.com,2013-01-04 01:54:00,
2013-01-03 21:09:00,27.1,25.4,30.03,SW,225,3.2,-999.0,93,-99.99,,,0.00,Acu-Link.com,2013-01-04 02:09:00,
2013-01-03 21:24:00,27.1,25.4,30.03,SW,225,3.2,-999.0,93,-99.99,,,0.00,Acu-Link.com,2013-01-04 02:24:00,
2013-01-03 21:40:00,27.1,25.4,30.03,SW,225,5.3,-999.0,93,-99.99,,,0.00,Acu-Link.com,2013-01-04 02:40:00,
2013-01-03 21:55:00,27.1,25.4,30.03,WSW,247,3.7,-999.0,93,-99.99,,,0.00,Acu-Link.com,2013-01-04 02:55:00,
2013-01-03 22:10:00,27.1,25.4,30.03,WSW,247,2.2,-999.0,93,-99.99,,,0.00,Acu-Link.com,2013-01-04 03:10:00,
2013-01-03 22:25:00,27.1,25.4,30.03,WSW,247,5.3,-999.0,93,-99.99,,,0.00,Acu-Link.com,2013-01-04 03:25:00,
2013-01-03 22:41:00,27.1,25.4,30.03,WSW,247,6.3,-999.0,93,-99.99,,,0.00,Acu-Link.com,2013-01-04 03:41:00,
2013-01-03 22:56:00,27.1,25.4,30.03,SSW,202,3.7,-999.0,93,-99.99,,,0.00,Acu-Link.com,2013-01-04 03:56:00,
2013-01-03 23:11:00,27.1,25.6,30.03,SW,225,5.3,-999.0,94,-99.99,,,0.00,Acu-Link.com,2013-01-04 04:11:00,
2013-01-03 23:26:00,27.1,25.6,30.03,WSW,247,3.7,-999.0,94,-99.99,,,0.00,Acu-Link.com,2013-01-04 04:26:00,
2013-01-03 23:42:00,27.1,25.6,30.03,SW,225,3.7,-999.0,94,-99.99,,,0.00,Acu-Link.com,2013-01-04 04:42:00,
2013-01-03 23:57:00,27.1,25.6,30.02,SSW,202,3.2,-999.0,94,-99.99,,,0.00,Acu-Link.com,2013-01-04 04:57:00,